Weather in Korzovo

Russia / Smolensk Oblast     54°11′42″N   32°07′56″E
temp.,
°C
wind,
m/s
gust,
m/s
humid.,
%
clouds,
%
prec.,
mm/h
press.,
hPa
HPBL,
m
21 april, wed
wed2100:00+3ne3589100 0.0 1011444
03:00+3nne3591100 0.0 1010353
06:00+3nnw2588100 0.1 1008428
09:00+5nw357478 0.1 1008634
12:00+8w4560100 0.0 10081435
15:00+8wsw566954 0.1 10091024
18:00+9sw466554 0.4 10081048
21:00+5sw378166 0.5 1010127
22 april, thu
thu2200:00+5s379015 0.1 1010142
03:00+4s4109555 0.1 1011230
06:00+4s489833 0.0 1011203
09:00+9ssw578141 0.0 1012471
12:00+13ssw686747 0.6 10111192
15:00+15ssw795512 2.5 10101774
18:00+14ssw59595 0.9 10101295
21:00+10ssw4107496 1.3 1011215
23 april, fri
fri2300:00+9sw4992100 1.6 1011599
03:00+7sw4995100 1.9 1011292
06:00+4w5991100 0.7 1013589
09:00+4ssw4588100 3.2 1014514
12:00+8sw5762100 0.1 10141507
15:00+8sw5757100 0.1 10131482
18:00+8wsw3557100 0.1 10131460
21:00+6wnw2472100 0.3 1013116
24 april, sat
sat2400:00+4nw2478100 0.0 101293
03:00+3wnw3780100 0.0 1011178
06:00+1w3682100 0.0 1011162
09:00+4wnw57645 0.0 1011764
12:00+7w6845100 0.1 10102211
15:00+7w895698 0.3 10101638
18:00+6w79628 0.4 10101424
21:00+4w51074100 0.5 1011680
25 april, sun
sun2500:00+2w5108269 0.0 1011584
03:000wsw511915 0.0 1011389
06:00−1wsw511915 0.0 1011490
09:00+2wsw7971100 0.0 10101053
12:00+3wsw71069100 0.1 10111223
15:00+5wsw71065100 0.8 10101577
18:00+5wsw69635 0.8 10101546
21:00+1sw4108339 1.0 1010262